Holland, MI

6:24 AM EDT on April 23, 2018 (GMT -0400)
Tulip City

Weather History for KBIV - November, 2013

Change the Weather History Date:

Tuesday, November 26, 2013

  Actual Average Record
Temperature  
Mean Temperature 32 °F 38 °F  
Max Temperature 37 °F 44 °F 63 °F (1960)
Min Temperature 27 °F 32 °F 10 °F (1975)
Degree Days  
Heating Degree Days 33 27  
Month to date heating degree days 598 584  
Since 1 July heating degree days 1092 1109  
Cooling Degree Days 0 0  
Month to date cooling degree days 2 0  
Year to date cooling degree days 813 693  
Moisture  
Dew Point 25 °F    
Average Humidity 69    
Maximum Humidity 85    
Minimum Humidity 53    
Precipitation  
Precipitation T in 0.09 in 1.10 in (1979)
Month to date precipitation 4.11 3.09  
Year to date precipitation 38.47 33.79  
Sea Level Pressure  
Sea Level Pressure 30.03 in    
Wind  
Wind Speed 10 mph (West)    
Max Wind Speed 18 mph    
Max Gust Speed 26 mph    
Visibility 10 miles    
Events Snow    
T = Trace of Precipitation, MM = Missing Value Source: NWS Daily Summary

Daily Weather History Graph

Daily Weather History Graph

Search for Another Location

Airport or City:

Astronomy

Nov. 26, 2013 Rise Set
Actual Time 7:49 AM EST 5:13 PM EST
Civil Twilight 7:18 AM EST 5:44 PM EST
Nautical Twilight 6:43 AM EST 6:19 PM EST
Astronomical Twilight 6:09 AM EST 6:53 PM EST
Moon 12:43 AM EST (11/26) 1:28 PM EST (11/26)
Length of Visible Light 10h 26m
Length of Day
9h 23m
Last Quarter, 41% of the Moon is Illuminated
Nov 26
Last Quarter
Dec 2
New
Dec 9
First Quarter
Dec 17
Full
Dec 25
Last Quarter

Hourly Weather History & Observations

Time (EST) Temp. Windchill Dew Point Humidity Pressure Visibility Wind Dir Wind Speed Gust Speed Precip Events Conditions
12:35 AM 35.1 °F 25.2 °F 28.0 °F 76% 30.04 in 10.0 mi WSW 16.1 mph - N/A   Overcast
12:44 AM 35.1 °F 26.9 °F 28.0 °F 76% 30.04 in 10.0 mi WSW 11.5 mph - N/A   Overcast
12:53 AM 35.1 °F 25.5 °F 28.0 °F 76% 30.06 in 10.0 mi WSW 15.0 mph - N/A   Overcast
1:53 AM 35.1 °F 26.4 °F 28.9 °F 78% 30.04 in 10.0 mi WSW 12.7 mph - N/A   Overcast
2:53 AM 36.0 °F 27.1 °F 28.9 °F 76% 30.05 in 10.0 mi WSW 13.8 mph - N/A   Overcast
3:44 AM 36.0 °F 27.5 °F 30.0 °F 79% 30.03 in 10.0 mi WSW 12.7 mph - N/A   Overcast
3:53 AM 36.0 °F 27.5 °F 30.0 °F 79% 30.05 in 10.0 mi WSW 12.7 mph - N/A   Overcast
4:10 AM 36.0 °F 28.0 °F 30.0 °F 79% 30.03 in 10.0 mi WSW 11.5 mph - N/A   Overcast
4:53 AM 36.0 °F 28.5 °F 30.0 °F 79% 30.05 in 10.0 mi WSW 10.4 mph - N/A   Overcast
5:53 AM 33.1 °F 24.9 °F 27.0 °F 78% 30.05 in 10.0 mi South 10.4 mph - N/A   Overcast
6:51 AM 32.0 °F 22.5 °F 26.6 °F 80% 30.01 in 10.0 mi South 12.7 mph - N/A   Overcast
6:53 AM 32.0 °F 22.5 °F 27.0 °F 82% 30.04 in 10.0 mi South 12.7 mph - N/A   Overcast
7:53 AM 32.0 °F 22.1 °F 27.0 °F 82% 30.03 in 10.0 mi South 13.8 mph - N/A   Overcast
8:53 AM 32.0 °F 24.8 °F 27.0 °F 82% 30.03 in 10.0 mi South 8.1 mph - N/A   Overcast
9:53 AM 32.0 °F 23.6 °F 27.0 °F 82% 30.04 in 10.0 mi South 10.4 mph - N/A   Overcast
10:53 AM 32.0 °F 23.6 °F 28.0 °F 85% 30.02 in 10.0 mi South 10.4 mph - N/A   Overcast
11:53 AM 33.1 °F 28.7 °F 28.0 °F 82% 30.01 in 10.0 mi SSE 4.6 mph - N/A   Overcast
12:53 PM 37.0 °F 30.4 °F 26.1 °F 65% 30.01 in 10.0 mi West 9.2 mph - N/A   Overcast
1:29 PM 36.0 °F 29.0 °F 28.9 °F 76% 29.97 in 6.0 mi WNW 9.2 mph 18.4 mph 0.00 in Snow Light Snow
1:53 PM 35.1 °F 26.9 °F 27.0 °F 72% 30.00 in 9.0 mi NNW 11.5 mph - 0.00 in   Overcast
2:53 PM 34.0 °F 26.0 °F 25.0 °F 70% 29.99 in 10.0 mi NNW 10.4 mph 20.7 mph N/A   Overcast
3:34 PM 33.1 °F 24.4 °F 21.9 °F 64% 29.97 in 10.0 mi NNW 11.5 mph 19.6 mph N/A   Overcast
3:53 PM 33.1 °F 23.4 °F 21.0 °F 61% 30.00 in 10.0 mi NW 13.8 mph 19.6 mph N/A   Overcast
4:53 PM 30.9 °F 21.7 °F 21.9 °F 69% 30.02 in 10.0 mi NNW 11.5 mph 25.3 mph N/A   Overcast
5:53 PM 28.9 °F 22.8 °F 21.9 °F 75% 30.03 in 9.0 mi North 5.8 mph - 0.00 in Snow Light Snow
6:53 PM 30.0 °F 21.7 °F 18.0 °F 61% 30.04 in 10.0 mi North 9.2 mph 19.6 mph 0.00 in   Overcast
7:53 PM 28.9 °F 21.9 °F 14.0 °F 54% 30.06 in 10.0 mi North 6.9 mph - N/A   Overcast
8:53 PM 28.9 °F 21.1 °F 15.1 °F 56% 30.06 in 10.0 mi NNE 8.1 mph - N/A   Overcast
9:53 PM 28.9 °F 22.8 °F 15.1 °F 56% 30.06 in 10.0 mi North 5.8 mph - N/A   Overcast
10:53 PM 27.0 °F 19.5 °F 16.0 °F 63% 30.06 in 10.0 mi North 6.9 mph - N/A   Overcast
11:53 PM 27.0 °F 19.5 °F 18.0 °F 69% 30.07 in 10.0 mi North 6.9 mph - N/A   Overcast